Regional Weather Roundup
Issued by NWS

Home | Current Version | Previous Version | Graphics & Text | Print | Product List | Glossary On
Versions: 1 2 3 4 5 6 7 8 9 10 11 12 13 14 15 16 17 18 19 20 21 22 23 24 25 26 27 28 29 30 31 32 33 34 35 36 37 38 39 40 41 42 43 44 45 46 47 48 49 50
000
ASUS43 KLSX 290010
RWRMO

WEATHER SUMMARY FOR MISSOURI
NATIONAL WEATHER SERVICE SPRINGFIELD MO
700 PM CDT THU JUL 28 2016

NOTE: "FAIR" INDICATES FEW OR NO CLOUDS BELOW 12,000 FEET WITH NO
       SIGNIFICANT WEATHER AND/OR OBSTRUCTIONS TO VISIBILITY.
       CURRENT SKY AND/OR WEATHER CONDITIONS ARE NOT AVAILABLE FOR
       CHILLICOTHE AND FARMINGTON.

MOZ001>031-035>038-043-044-053-054-290100-
...NORTHERN AND WESTERN MISSOURI...

CITY           SKY/WX    TMP DP  RH WIND       PRES   REMARKS
KANSAS CTY INT MOSUNNY   85  65  51 N9        29.93R
6HR MIN TEMP:  85; 6HR MAX TEMP:  89;

KANSAS C DTWN  SUNNY     88  67  49 N8        29.91R HX  91
6HR MIN TEMP:  87; 6HR MAX TEMP:  92;

LEE`S SUMMIT   SUNNY     86  68  54 NE10      29.93R
6HR MIN TEMP:  86; 6HR MAX TEMP:  90;

ST JOSEPH      SUNNY     84  67  56 N9        29.93S
6HR MIN TEMP:  84; 6HR MAX TEMP:  88;

CHILLICOTHE      N/A     87  65  47 N8        29.93R
6HR MIN TEMP:  84; 6HR MAX TEMP:  90;

KIRKSVILLE     SUNNY     81  64  56 N13       29.94R
6HR MIN TEMP:  81; 6HR MAX TEMP:  88;


$$
MOZ066>068-077>081-088>096-101>105-290100-
...SOUTHWEST MISSOURI...

CITY           SKY/WX    TMP DP  RH WIND       PRES   REMARKS
SPRINGFIELD    SUNNY     83  69  62 NE6       29.93F
6HR MIN TEMP:  76; 6HR MAX TEMP:  90; 6HR PCP: TRACE;

JOPLIN         CLOUDY    87  73  62 CALM      29.92S HX  94
6HR MIN TEMP:  85; 6HR MAX TEMP:  90;

BRANSON        PTSUNNY   82  72  69 W5        29.95S

$$
MOZ032>034-039>042-045>050-055>058-069>072-290100-
...CENTRAL MISSOURI...

CITY           SKY/WX    TMP DP  RH WIND       PRES   REMARKS
COLUMBIA       MOSUNNY   79  71  76 N3        29.92S
6HR MIN TEMP:  73; 6HR MAX TEMP:  89; 6HR PCP: TRACE;

JEFFERSON CITY MOSUNNY   78  70  76 E5        29.91R
6HR MIN TEMP:  78; 6HR MAX TEMP:  87; 6HR PCP:  0.07;

ROLLA          PTSUNNY   78  70  76 SW3       29.91F
6HR MIN TEMP:  68; 6HR MAX TEMP:  89; 6HR PCP:  0.40;

SEDALIA        MOSUNNY   84  75  74 CALM      29.93S HX  92
6HR MIN TEMP:  77; 6HR MAX TEMP:  90; 6HR PCP:  0.12;

WHITEMAN AFB   MOSUNNY   85  73  67 NE5       29.90S HX  91
OSAGE BEACH    PTSUNNY   81  72  74 S6        29.92F

$$
MOZ051-052-059>065-290100-
...EAST CENTRAL MISSOURI...

CITY           SKY/WX    TMP DP  RH WIND       PRES   REMARKS
ST LOUIS INTL  PTSUNNY   87  70  56 N9        29.88S HX  92
6HR MIN TEMP:  87; 6HR MAX TEMP:  91;

SPIRIT OF STL  PTSUNNY   86  71  60 N5        29.86S HX  91
6HR MIN TEMP:  86; 6HR MAX TEMP:  90;

ST CHARLES     MOSUNNY   84  72  67 NW5       29.86S
6HR MIN TEMP:  84; 6HR MAX TEMP:  89;


$$
MOZ072>076-082>087-097>100-106>115-290100-
...SOUTH CENTRAL AND SOUTHEAST MISSOURI...

CITY           SKY/WX    TMP DP  RH WIND       PRES   REMARKS
CAPE GIRARDEAU CLOUDY    79  72  79 S5        29.88S
6HR MIN TEMP:  78; 6HR MAX TEMP:  86; 6HR PCP: TRACE;

FARMINGTON     CLOUDY    81  73  76 W3        29.91S
6HR MIN TEMP:  81; 6HR MAX TEMP:  89; 6HR PCP: TRACE;

POPLAR BLUFF   CLOUDY    78  72  81 S3        29.90R
6HR MIN TEMP:  72; 6HR MAX TEMP:  89; 6HR PCP:  0.79;

WEST PLAINS    SUNNY     85  71  63 NW5       29.94R HX  90
6HR MIN TEMP:  85; 6HR MAX TEMP:  91;


$$



USA.gov is the U.S. government's official web portal to all federal, state and local government web resources and services.